Location: Newark
(47.5833°N, 8.1500°E)
Time: 18:10:15
(UTC+00:00)

Transit 2A - Pass Details

Date: 31 October 2020
Orbit: 595 x 964 km, 66.7° (Epoch: 29 November)

Event Time Altitude Azimuth Distance (km) Brightness Sun altitude
Rises 08:36:24 0° 323° (NW) 3,457 8.8 19.1°
Reaches altitude 10° 08:39:01 10° 321° (NW) 2,461 8.1 19.4°
Maximum altitude 08:44:37 67° 241° (WSW) 841 6.5 20.0°
Drops below altitude 10° 08:49:35 10° 159° (SSE) 2,196 10.1 20.5°
Sets 08:51:49 0° 157° (SSE) 3,058 10.6 20.7°
